Location: Mentone
(34.5413°N, 85.5351°W)
Time: 13:56:01
(UTC-05:00)

ATLAS 5 CENTAUR R/B - Visible Passes

Search period start: 29 August 2015 00:00
Search period end: 08 September 2015 00:00
Orbit: 691 x 970 km, 63.4° (Epoch: 26 July)

Date Brightness Start Highest point End Pass type
(mag) Time Alt. Az. Time Alt. Az. Time Alt. Az.
29 Aug 4.6 02:13:53 16° NNE 02:13:53 16° NNE 02:14:59 10° NNE visible
29 Aug 4.2 03:55:27 13° NW 03:55:27 13° NW 03:57:38 10° NNW visible
30 Aug 4.8 01:55:42 13° NNE 01:55:42 13° NNE 01:56:12 10° NNE visible
30 Aug 4.3 03:37:15 13° NNW 03:37:15 13° NNW 03:39:03 10° N visible
31 Aug 4.4 03:19:02 13° NNW 03:19:02 13° NNW 03:20:26 10° N visible
01 Sep 4.5 03:00:48 13° NNW 03:00:48 13° NNW 03:01:48 10° N visible
02 Sep 4.7 02:42:32 12° N 02:42:32 12° N 02:43:10 10° N visible
03 Sep 4.9 02:24:15 11° N 02:24:15 11° N 02:24:30 10° N visible
